Location: Wavehorne
(51.0500°N, 0.8333°E)
Time: 16:25:11
(UTC+00:00)

NOSS 2-2 (C) - Pass Details

Date: 27 October 2021
Orbit: 450 x 1755 km, 63.3° (Epoch: 01 December)

Event Time Altitude Azimuth Distance (km) Brightness Sun altitude
Exits shadow 05:15:37 11° 237° (WSW) 2,860 6.5 -13.9°
Drops below altitude 10° 05:16:18 10° 232° (SW) 2,959 6.6 -13.8°
Sets 05:21:54 0° 202° (SSW) 4,292 7.7 -12.9°
